[Iaude] MPEC C158: 2024 CG4 [a=0.99,e=0.06,i=36.7,H=23.7]
    mpec at cfa.harvard.edu 
    mpec at cfa.harvard.edu
       
    Tue Feb 13 21:04:18 EST 2024
    
    
  
M.P.E.C. 2024-C158                            Issued 2024 February 14, 02:02 UT
     The Minor Planet Electronic Circulars contain information on unusual
         minor planets, routine data on comets and natural satellites,
         and occasional editorial announcements.  They are published
    on behalf of Division F of the International Astronomical Union by the
          Minor Planet Center, Smithsonian Astrophysical Observatory,
                          Cambridge, MA 02138, U.S.A.
			  
             Prepared using the Tamkin Foundation Computer Network
                              MPC at CFA.HARVARD.EDU
            URL https://www.minorplanetcenter.net/    ISSN 1523-6714
                                    2024 CG4                                    
Observations:
     K24C04G  C2024 02 12.46173709 03 03.659+27 29 19.30         18.17GVEC158F52
     K24C04G  C2024 02 12.47283409 02 41.941+27 23 47.92         18.01GVEC158F52
     K24C04G  C2024 02 12.48395109 02 20.213+27 18 15.11         18.01GVEC158F52
     K24C04G* C2024 02 13.36678408 36 02.928+19 46 35.11         18.50cVEC158T05
     K24C04G  C2024 02 13.36859408 35 59.928+19 45 42.95         19.02cVEC158T05
     K24C04G  C2024 02 13.39783808 35 08.378+19 30 27.40         18.89cVEC158T05
     K24C04G  C2024 02 13.40372408 34 58.152+19 27 26.17         19.01cVEC158T05
     K24C04G KB2024 02 13.57559 08 30 11.86 +17 57 10.8          18.1 GXEC158Q06
     K24C04G KB2024 02 13.57875 08 30 06.40 +17 55 31.5          18.1 GXEC158Q06
     K24C04G KB2024 02 13.58187 08 30 01.05 +17 53 54.0          18.2 GXEC158Q06
     K24C04G KC2024 02 13.63416908 28 32.26 +17 26 39.0          18.3 GVEC158900
     K24C04G KC2024 02 13.64176808 28 19.38 +17 22 41.4                VEC158900
     K24C04G KC2024 02 13.64936708 28 06.60 +17 18 43.0          17.8 GVEC158900
     K24C04G KC2024 02 13.74878 08 25 36.27 +16 26 33.3          18.8 GVEC158C82
     K24C04G KC2024 02 13.75112 08 25 32.47 +16 25 22.1          18.9 GVEC158C82
     K24C04G KC2024 02 13.75265208 25 29.44 +16 24 23.4          17.8 GXEC158595
     K24C04G KC2024 02 13.75381 08 25 28.06 +16 24 00.3          17.6 GVEC158C82
     K24C04G KC2024 02 13.75778 08 25 21.59 +16 21 56.9          18.4 GVEC158C82
     K24C04G KB2024 02 13.75807 08 25 20.350+16 21 26.14         17.7 GXEC158K74
     K24C04G KC2024 02 13.75955108 25 18.18 +16 20 49.7          18.0 GXEC158595
     K24C04G KB2024 02 13.76310 08 25 12.139+16 18 50.36         18.0 GXEC158K74
     K24C04G KC2024 02 13.76528 08 25 08.08 +16 17 47.9          17.9 GXEC158G02
     K24C04G KC2024 02 13.76644508 25 06.89 +16 17 16.2          18.2 GXEC158595
     K24C04G KB2024 02 13.76814 08 25 03.924+16 16 14.09         17.8 GXEC158K74
     K24C04G KC2024 02 13.76842 08 25 02.86 +16 16 10.4          17.7 GXEC158G02
     K24C04G KC2024 02 13.77143 08 24 57.92 +16 14 36.4          18.1 GXEC158G02
     K24C04G KC2024 02 13.79463308 24 20.80 +16 02 44.0          18.0 GVEC158L01
     K24C04G KC2024 02 13.79576808 24 18.95 +16 02 08.8          17.9 GVEC158L01
     K24C04G KC2024 02 13.79690108 24 17.09 +16 01 33.9          18.1 GVEC158L01
     K24C04G KC2024 02 13.79803508 24 15.24 +16 00 58.9          18.1 GVEC158L01
     K24C04G KC2024 02 13.79916908 24 13.38 +16 00 23.6          18.1 GVEC158L01
     K24C04G KB2024 02 13.81421308 23 50.17 +15 52 33.8          18.0 GXEC158I93
     K24C04G KB2024 02 13.81488 08 23 48.59 +15 52 16.2          18.0 GXEC158K19
     K24C04G KC2024 02 13.81646 08 23 45.62 +15 51 29.1          19.7 GXEC158K78
     K24C04G KB2024 02 13.81859 08 23 42.58 +15 50 21.6          18.2 GXEC158K19
     K24C04G 1C2024 02 13.82039 08 23 38.45 +15 49 12.9          18.6 VXEC158033
     K24C04G 1C2024 02 13.82062 08 23 38.07 +15 49 05.6          18.9 VXEC158033
     K24C04G 1C2024 02 13.82085 08 23 37.70 +15 48 58.5          18.8 VXEC158033
     K24C04G KB2024 02 13.82122708 23 38.76 +15 48 56.6          17.6 GXEC158I93
     K24C04G KB2024 02 13.82232 08 23 36.47 +15 48 25.8          18.0 GXEC158K19
     K24C04G KC2024 02 13.82409 08 23 33.14 +15 47 32.7          19.1 GXEC158K78
     K24C04G KB2024 02 13.82440008 23 33.59 +15 47 18.2          17.9 GXEC158I93
     K24C04G KC2024 02 13.82689108 23 28.54 +15 46 02.6          18.1 GVEC158203
     K24C04G KC2024 02 13.83466708 23 15.86 +15 42 01.5          18.1 GVEC158203
     K24C04G KB2024 02 13.83494308 23 16.60 +15 41 54.1          17.9 GXEC158958
     K24C04G KB2024 02 13.83873808 23 10.42 +15 39 56.3          18.2 GXEC158958
     K24C04G KB2024 02 13.84252808 23 04.24 +15 37 59.2          17.9 GXEC158958
     K24C04G KC2024 02 13.84356208 23 01.33 +15 37 25.6          18.1 GVEC158203
     K24C04G KB2024 02 13.84763 08 22 56.249+15 35 29.65         18.9 GXEC158J57
     K24C04G KB2024 02 13.85120 08 22 50.402+15 33 38.88         18.9 GXEC158J57
     K24C04G  C2024 02 13.85181 08 22 46.91 +15 36 26.2          18.7 GVEC158M28
     K24C04G  C2024 02 13.85388 08 22 43.41 +15 35 20.0          18.8 GVEC158M28
     K24C04G KB2024 02 13.85471 08 22 44.710+15 31 50.59         18.8 GXEC158J57
     K24C04G  C2024 02 13.85595 08 22 40.09 +15 34 17.6          18.9 GVEC158M28
     K24C04G KC2024 02 13.87612208 22 08.251+15 20 35.84         18.2 GVEC158K38
     K24C04G KC2024 02 13.88262608 21 57.658+15 17 14.39         18.1 GVEC158K38
     K24C04G KC2024 02 13.88496308 21 53.14 +15 15 52.1          18.2 GVEC158K62
     K24C04G KC2024 02 13.88653508 21 50.60 +15 15 03.1          18.1 GVEC158K62
     K24C04G KC2024 02 13.88705808 21 49.74 +15 14 47.2          18.3 GVEC158K62
     K24C04G KB2024 02 13.89697 08 21 33.51 +15 09 44.2          18.0 GXEC158G00
     K24C04G KB2024 02 13.90170 08 21 25.83 +15 07 17.0          17.6 GXEC158G00
     K24C04G KC2024 02 13.94055 08 20 23.46 +14 47 23.6          18.8 GVEC158104
     K24C04G KC2024 02 13.94326 08 20 19.09 +14 45 59.6          18.4 GVEC158104
     K24C04G KC2024 02 13.94590 08 20 14.81 +14 44 37.8          18.5 GVEC158104
Observer details:
033 Karl Schwarzschild Observatory, Tautenburg.  Observers S. Melnikov, C.
    Hogner, F. Ludwig, M. Hartmann, B. Stecklum.  Measurer B. Stecklum.
    1.34-m f/3 Schmidt + CCD.
104 San Marcello Pistoiese.  Observers P. Bacci, M. Maestripieri.  Measurer P.
    Bacci.  0.60-m f/4 reflector + CCD.
203 GiaGa Observatory.  Observer G. Galli.  0.36-m f/5.76 Schmidt-Cassegrain +
    CCD.
595 Farra d'Isonzo.  Observer E. Pettarin.  0.61-m f/4.5 reflector + CCD.
900 Moriyama.  Observer Y. Ikari.  0.26-m f/7.0 reflector + CMO.
958 Observatoire de Dax.  Observer P. Dupouy.  0.50-m f/4.5 Reflector + CMO.
C82 Osservatorio Astronomico Nastro Verde, Sorrento.  Observer N. Ruocco.
    0.35-m f/6.3  Schmidt-Cassegrain + CCD.
F52 Pan-STARRS 2, Haleakala.  Observers J. Herman, T. Lowe, P. Minguez, A.
    Schultz, I. Smith.  Measurers K. Chambers, T. de Boer, J. Fairlamb, H.
    Gao, M. Huber, C.-C. Lin, E. Magnier, Y. Ramanjooloo, R. Wainscoat, R.
    Weryk.  1.8-m Ritchey-Chretien + CCD.
G00 AZM Martinsberg, Oed.  Observers M. Jaeger, E. Prosperi.  Measurer M.
    Jaeger.  0.28-m f/2.2 reflector + CMO.
G02 KYSUCE Observatory, Kysucke Nove Mesto.  Observer M. Urbanik.  0.40-m
    f/6.8 Corrected Dall-Kirkham + CCD.
I93 St Pardon de Conques.  Observer F. Losse.  0.40-m f/3.7 reflector + CCD.
J57 Centro Astronomico Alto Turia, Valencia.  Observer A. Fornas.  Measurers
    A. Fornas, G. Fornas, E. Arce, V. Mas.  0.43-m f/6.8 Reflector CDK + CMO.
K19 PASTIS Observatory, Banon.  Observer C. Demeautis.  0.28-m f/2.2 reflector
    + CMO.
K38 M57 Observatory, Saltrio.  Observer G. Baj.  0.35-m f/5.3 Ritchey-Chretien
    + CCD.
K62 Teplice Observatory.  Observer Z. Moravec.  0.60-m f/3.3 reflector + CMOS.
K74 Muensterschwarzach Observatory, Schwarzach.  Observer C. Gerhard.  0.30-m
    f/3.75 reflector + CMO.
K78 iota Scorpii Observatory, La Spezia.  Observers G. Scarfi, P. Boongerd.
    0.40-m f/6.1 reflector + CCD.
L01 Visnjan Observatory, Tican.  Observer K. Korlevic.  1.0-m f/2.9 reflector
    + CCD.
M28 Lesedi Telescope-SAAO Observatory, Sutherland.  Observers N. Erasmus, S.
    Potter, C. van Gend, S. Chandra, H. Worters.  Measurers T. Ngwane, N.
    Erasmus.  1.0-m f/8 Reflector + CCD.
Q06 Tarui Observatory, Tarui.  Observer H. Watanabe.  0.35-m f/1.9 Schmidt-
    Cassegrain + CMO.
T05 ATLAS-HKO, Haleakala.  Observers L. Denneau, R. Siverd, J. Tonry, H.
    Weiland.  Measurers L. Denneau, N. Erasmus, A. Fitzsimmons, A. Lawrence,
    J. Robinson, R. Siverd, J. Tonry, H. Weiland.  0.5-m Reflector + CCD.
Orbital elements:
2024 CG4                                                 Earth MOID = 0.0521 AU
Epoch 2023 Sept. 13.0 TT = JDT 2460200.5                Veres                   
M  64.96042              (2000.0)            P               Q                  
n   0.99355819     Peri.  326.30496     +0.39603151     +0.84488148             
a   0.9946581      Node   322.96008     -0.65400191     -0.01538269             
e   0.0570493      Incl.   36.65714     -0.64454678     +0.53473232             
P   0.99           H   23.74          G   0.15           U   8                  
Residuals in seconds of arc
240212 F52  0.0   0.1+    240213 595  0.1-  0.0     240213 958  0.0   0.2+
240212 F52  0.1+  0.1+    240213 K74  0.0   0.2-    240213 958  0.1-  0.1-
240212 F52  0.1-  0.1-    240213 G02  0.2-  0.6+    240213 958  0.2-  0.1+
240213 T05  1.3-  2.0-    240213 G02  0.4-  0.1-    240213 203  0.0   0.2-
240213 T05  1.4+  2.3+    240213 L01  0.2-  0.1-    240213 J57  0.0   0.3-
240213 T05  0.3+  0.0     240213 L01  0.1-  0.1-    240213 J57  0.3-  0.4-
240213 T05  1.8+  2.8+    240213 L01  0.2-  0.1+    240213 M28  1.5+  1.7+
240213 Q06  1.1+  0.5-    240213 L01  0.1-  0.2+    240213 M28  0.1+  0.3-
240213 Q06  0.1+  1.0-    240213 L01  0.2-  0.1+    240213 J57  0.1+  0.1-
240213 Q06  0.2-  1.0-    240213 I93  0.5-  0.1-    240213 M28  1.3+  1.5+
240213 900  0.3-  0.5-    240213 K19  0.5-  0.6-    240213 K38  0.0   0.3-
240213 900  0.9-  0.1-    240213 K78  0.1+  0.0     240213 K38  0.1-  0.1-
240213 900  0.4-  0.5-    240213 K19  0.1+  0.3-    240213 K62  0.3+  0.3+
240213 C82 (0.8-  2.1-)   240213 033  0.3+  0.1+    240213 K62  0.5+  0.0
240213 C82  0.3-  0.8-    240213 033  0.2+  0.0     240213 K62  0.3+  0.3+
240213 595  0.3-  0.1-    240213 033  0.3+  0.0     240213 G00  0.0   0.4-
240213 C82  0.3-  0.7+    240213 I93  0.3-  0.2-    240213 G00  0.1-  0.9-
240213 C82  0.2+  0.3+    240213 K19  0.2-  0.6-    240213 104  0.1+  0.1+
240213 K74  0.1-  0.2-    240213 K78  0.0   0.1+    240213 104  0.2+  0.1+
240213 595  0.1+  0.1-    240213 I93  0.3-  0.4-    240213 104  0.0   0.1+
240213 K74  0.0   0.0     240213 203  0.1-  0.2+
240213 G02  0.9+  0.7+    240213 203  0.1+  0.1+
Ephemeris:
2024 CG4                 a,e,i = 0.99, 0.06, 37                  q = 0.9379
Date    TT    R. A. (2000) Decl.     Delta      r    Elong.  Phase     V
2024 01 15    15 12 55.0 +52 09 34   0.3077  1.0509    94.0    69.0    23.7
...
2024 01 30    14 18 29.3 +54 16 08   0.1608  1.0473   108.6    63.1    22.1
...
2024 02 07    12 07 19.2 +52 41 51   0.08617 1.0440   130.4    46.0    20.3
...
2024 02 13    08 46 40.0 +22 57 08   0.05595 1.0410   163.8    15.4    18.4
2024 02 14    08 18 52.9 +14 18 26   0.05681 1.0405   158.6    20.3    18.6
2024 02 15    07 54 49.7 +06 01 52   0.05964 1.0399   150.6    27.8    18.9
...
2024 02 21    06 29 17.9 -23 14 50   0.1017  1.0363   115.3    59.6    21.0
...
2024 02 29    05 46 49.5 -34 33 14   0.1781  1.0308    98.1    72.1    22.6
...
2024 03 15    05 21 35.9 -40 28 24   0.3216  1.0187    85.1    76.6    24.0
M. P. C. Staff               (C) Copyright 2024 MPC           M.P.E.C. 2024-C158
    
    
More information about the Iaude
mailing list